GFSFLT2_700_temp_276.txt.gz
Temp
11 11 11 11 10 10 10 9 9 9 9 9 9 9 8 8 8 8 8 7 7 7 7 7 7 7 7 7 7 7 7 6
10 10 11 11 10 10 10 10 9 9 9 9 9 9 8 8 8 8 8 7 7 7 7 7 7 6 6 7 7 7 7 6
9 10 10 10 10 10 10 10 9 9 9 9 9 9 8 8 8 8 7 7 7 7 7 7 7 7 7 6 6 6 7 7
10 10 10 10 10 10 10 10 10 9 9 9 9 8 8 8 8 7 7 7 7 7 7 7 7 7 6 6 7 6 7 7
7 8 9 9 10 10 10 10 10 9 9 9 9 8 8 8 8 8 7 7 7 7 7 7 7 7 6 6 6 7 6 7
7 7 7 8 9 9 10 10 10 10 9 9 9 9 8 8 8 7 7 7 7 7 7 7 7 6 6 6 6 6 6 7
6 6 7 7 8 9 9 9 10 9 9 9 9 9 8 8 8 7 7 7 7 7 7 7 6 6 6 6 6 7 7 7
6 6 6 7 7 8 9 9 9 9 9 9 9 8 8 8 8 7 7 7 7 7 7 7 6 6 6 6 6 6 7 7
7 6 6 6 6 7 8 9 9 9 9 9 9 8 8 8 8 8 7 7 7 7 7 7 7 6 6 6 7 7 7 7
7 7 7 6 6 6 7 8 9 9 9 9 9 9 8 8 8 8 8 7 7 7 7 7 7 7 6 6 6 7 7 7
7 7 7 7 6 6 6 7 8 9 9 9 9 9 9 8 8 8 8 8 8 7 7 7 7 7 7 6 6 7 7 7
7 7 7 7 7 6 6 6 6 8 9 9 9 9 9 9 9 8 8 8 8 8 8 7 7 7 7 7 7 7 7 7
6 7 7 7 7 7 7 6 6 7 8 8 8 8 8 9 9 8 8 8 8 8 8 8 8 7 8 8 7 8 7 8
4 5 6 7 7 7 7 7 6 6 7 8 8 8 8 8 9 9 9 9 8 8 8 8 8 8 8 8 8 8 8 8
3 4 5 6 6 7 7 7 7 7 6 7 8 8 8 8 8 9 8 9 9 8 8 8 8 8 8 8 9 9 9 8
3 3 3 4 5 6 6 7 7 7 7 6 6 7 7 7 8 8 8 8 9 9 8 8 8 8 8 9 9 9 9 9
1 2 3 3 4 4 6 6 7 7 7 6 6 6 6 6 6 7 7 8 8 8 8 9 8 8 8 9 9 9 9 9
0 2 2 3 3 4 4 5 6 6 7 7 6 7 7 6 6 6 7 7 8 8 8 8 8 8 8 8 9 9 9 9
-1 -0 1 2 2 3 4 4 5 5 6 6 7 7 8 7 6 6 6 7 7 8 8 8 8 8 8 8 8 8 9 9
-1 -1 -0 1 2 1 2 4 4 4 5 5 6 6 7 7 7 6 6 6 6 7 7 7 8 8 8 8 8 8 8 8

GFSFLT2_700_temp_279.txt.gz
Temp
10 10 10 10 9 9 9 9 9 9 9 9 8 8 8 8 8 8 8 8 7 7 7 7 7 7 7 7 7 7 7 7
9 9 10 10 9 9 9 9 9 8 9 9 8 8 8 8 8 7 7 7 7 7 7 7 7 7 7 7 7 7 7 7
8 9 9 10 9 9 9 9 9 8 8 9 8 8 8 8 8 7 7 7 7 7 7 7 7 7 7 7 7 7 7 7
8 8 8 9 9 9 9 9 9 9 8 8 8 8 8 8 8 7 7 7 7 7 7 7 7 7 7 7 6 6 6 6
7 7 8 8 8 9 9 9 9 9 9 8 8 8 8 8 8 8 7 7 7 7 7 7 7 6 6 6 6 6 6 6
6 6 7 7 8 8 8 8 9 9 9 9 8 8 8 8 8 7 7 7 7 7 7 7 6 6 6 6 6 6 6 6
6 6 6 6 6 7 8 8 8 8 9 8 8 8 8 8 7 7 7 7 7 7 7 7 6 6 6 6 6 6 6 6
8 7 6 6 6 6 6 7 8 8 8 8 8 8 8 8 7 7 7 7 7 7 7 7 6 6 6 6 6 6 6 6
6 7 7 7 6 6 6 7 7 8 8 8 8 8 8 7 7 7 7 7 7 7 7 7 7 6 6 6 6 6 6 6
6 6 6 6 6 6 6 6 7 7 8 8 8 8 8 8 7 7 7 7 7 7 7 7 7 7 6 6 6 6 6 6
6 6 6 7 6 6 6 6 6 7 7 7 8 8 8 8 8 7 7 7 7 7 7 7 7 7 7 7 7 7 7 7
5 6 6 6 6 7 7 7 6 7 8 7 7 7 8 8 8 8 7 7 7 7 7 7 7 7 7 7 7 7 7 7
3 4 6 6 6 6 7 7 7 6 7 7 7 7 7 8 8 8 8 8 8 7 7 7 7 7 7 8 8 8 8 7
2 2 3 5 6 6 6 7 7 7 6 6 6 7 7 7 8 8 7 7 8 8 8 8 7 7 8 8 8 8 9 8
1 2 2 3 4 5 6 6 6 6 7 5 7 7 7 7 8 8 8 7 7 7 7 7 7 7 7 7 8 9 9 8
0 1 2 2 3 4 5 5 6 6 6 6 6 7 7 7 7 7 7 7 8 8 7 7 7 7 7 8 8 8 9 9
-1 -0 1 2 2 3 3 4 4 5 6 6 6 5 6 7 7 7 7 7 7 7 8 7 7 7 7 7 7 8 8 8
-2 -1 -0 1 2 2 3 3 4 4 5 5 6 4 4 4 5 5 6 7 7 7 7 7 7 7 7 7 7 8 8 8
-3 -2 -1 -0 0 1 2 3 3 4 4 5 5 5 4 4 4 4 5 5 6 6 7 7 7 7 7 7 7 8 7 8
-3 -3 -3 -2 -0 -0 1 2 3 3 4 4 4 5 4 4 4 4 3 4 5 5 5 6 6 7 7 7 7 7 7 8

GFSFLT2_700_temp_285.txt.gz
Temp
9 8 9 9 9 8 8 8 8 8 8 7 7 7 7 7 7 7 7 7 7 7 7 7 7 7 7 7 7 7 7 7
8 8 8 8 8 8 8 8 8 8 8 7 7 8 7 7 7 7 7 7 7 7 7 7 7 7 7 7 7 7 7 7
7 7 7 7 7 8 8 8 8 8 8 8 7 7 7 7 7 7 7 7 7 7 7 7 7 7 7 7 7 7 6 7
7 6 7 7 7 7 7 8 8 8 8 8 8 7 7 7 7 7 7 7 7 7 7 7 7 7 6 6 6 6 6 6
8 8 8 7 6 7 7 7 7 8 8 7 8 7 7 7 7 7 7 7 7 7 7 7 7 6 6 6 6 6 6 6
7 7 7 7 7 6 6 6 7 7 7 7 7 7 7 7 7 7 7 7 7 7 7 6 6 6 6 6 6 6 6 6
6 6 6 6 7 7 6 5 6 6 6 7 7 7 7 7 7 7 7 7 7 7 6 6 6 6 6 6 6 6 6 6
6 6 7 7 6 6 7 7 6 6 6 6 6 7 7 7 7 7 7 7 7 7 7 6 6 6 6 6 6 6 6 6
6 6 6 7 7 6 6 7 7 6 6 7 7 6 7 7 7 7 7 7 7 7 7 6 7 6 6 6 6 6 6 6
6 6 6 6 6 7 6 6 6 6 7 6 7 7 7 7 7 7 7 7 7 7 7 7 6 6 6 6 6 6 6 6
6 6 6 6 6 6 6 6 6 6 6 6 7 7 7 7 7 7 7 7 7 7 7 7 7 6 6 6 6 6 6 6
5 5 6 6 6 6 6 6 6 6 6 7 6 6 7 7 7 6 7 7 7 7 7 7 7 7 6 6 6 6 6 6
2 3 4 5 5 6 6 6 6 6 6 6 5 4 6 6 7 7 6 7 7 7 7 7 7 7 7 7 7 7 7 6
0 0 1 3 4 4 5 5 5 6 6 6 6 4 5 6 7 7 6 7 6 7 7 7 7 7 7 7 7 7 7 7
-0 -0 -0 -0 1 2 3 3 4 5 5 6 6 6 5 5 5 7 7 6 6 6 6 7 7 7 7 6 6 7 6 5
-2 -1 -1 -1 -1 0 1 2 2 3 4 5 6 6 6 4 4 5 5 6 6 6 6 6 6 6 6 7 7 6 6 4
-2 -2 -1 -1 -1 -1 -0 0 1 2 3 3 4 5 6 5 4 4 4 4 5 5 6 6 6 6 5 5 7 7 6 6
-3 -3 -3 -2 -2 -1 -1 -1 0 0 1 2 3 3 4 5 4 4 4 3 5 5 5 5 6 6 6 5 5 6 7 6
-3 -3 -3 -3 -2 -2 -2 -2 -1 -0 0 1 2 2 3 3 3 3 3 3 4 3 5 4 4 5 6 5 5 5 5 6
-4 -4 -4 -4 -3 -3 -2 -2 -2 -1 -1 -0 0 1 2 2 3 3 3 2 3 4 3 3 5 4 5 4 4 5 4 4

GFSFLT2_700_temp_291.txt.gz
Temp
8 8 8 8 8 8 8 8 8 8 8 8 7 8 7 7 7 7 7 7 7 7 7 7 7 7 7 7 7 7 7 6
9 8 8 8 8 8 8 8 8 8 8 8 7 7 7 7 7 7 7 7 7 7 7 7 6 6 6 6 6 6 7 7
9 8 8 8 8 8 8 8 8 8 7 8 7 7 7 7 7 7 7 7 6 6 6 6 6 6 6 6 6 6 6 7
7 6 7 7 7 8 8 8 7 7 7 7 7 8 7 7 7 7 7 6 6 6 6 6 6 6 6 6 6 7 6 7
8 7 6 7 7 7 7 7 8 7 7 7 7 7 7 7 7 7 7 6 6 6 6 6 6 6 6 6 5 6 6 6
8 7 7 7 7 7 7 7 7 8 7 7 7 7 7 7 7 6 6 6 6 6 6 6 6 5 6 6 5 7 6 6
8 7 7 7 7 7 6 7 7 7 7 7 6 7 7 7 7 7 6 6 6 6 6 6 6 6 6 5 5 6 6 6
7 7 7 7 7 7 6 6 7 7 6 7 6 6 6 6 6 7 6 6 6 6 6 6 6 6 6 6 5 5 6 6
7 6 6 6 6 7 7 7 7 6 6 7 6 6 6 5 6 6 6 6 6 6 6 6 6 6 6 6 6 5 5 5
7 7 6 6 6 6 6 6 6 6 6 6 6 6 7 7 6 6 5 5 5 6 6 6 6 6 6 6 6 6 6 6
6 6 6 6 6 6 6 6 6 6 6 6 6 5 5 5 6 6 5 4 5 5 5 6 6 5 6 5 6 6 6 6
4 4 5 5 5 5 5 5 5 6 6 6 6 6 5 5 5 4 4 4 4 4 3 5 6 5 5 5 5 5 5 6
3 3 2 3 3 4 4 4 4 5 5 5 5 5 5 5 5 4 1 2 4 5 5 4 5 6 5 6 6 6 6 6
2 3 2 1 1 1 2 3 3 3 4 4 4 4 4 4 5 4 3 3 3 3 3 4 4 4 5 5 6 5 6 6
-0 0 -0 -0 -0 -0 -0 -0 0 1 1 1 2 3 2 3 4 4 4 3 3 3 3 4 4 4 4 4 5 6 5 5
1 -1 0 -2 -1 -1 -1 -1 -0 0 0 0 0 0 1 1 1 3 3 3 3 3 3 3 2 2 3 4 4 5 5 5
0 -1 -1 -3 -2 -2 -1 -1 -1 -1 -0 -0 -0 -1 -1 -0 0 1 2 2 2 2 3 2 2 2 2 3 3 4 4 4
-1 -1 -2 -3 -3 -2 -2 -1 -1 -1 -1 -1 -1 -1 -1 -1 -1 -0 0 1 2 3 3 3 2 2 2 2 3 3 3 3
-2 -2 -3 -3 -3 -3 -3 -2 -2 -2 -1 -1 -1 -1 -1 -1 -1 -1 -0 0 1 2 2 3 2 2 2 2 2 3 2 3
-3 -3 -3 -3 -3 -3 -3 -3 -3 -3 -2 -2 -3 -3 -3 -2 -2 -2 -1 -1 -0 0 1 1 2 1 2 2 2 3 2 1